Weather History for LTAU - December, 2012

Change the Weather History Date:

Wednesday, December 5, 2012

  Actual Average Record
Temperature  
Mean Temperature 34 °F -  
Max Temperature 39 °F 40 °F 69 °F (2010)
Min Temperature 28 °F 22 °F 14 °F (2011)
Degree Days  
Heating Degree Days 32    
Moisture  
Dew Point 29 °F    
Average Humidity 85    
Maximum Humidity 100    
Minimum Humidity 58    
Precipitation  
Precipitation 0.00 in - - ()
Sea Level Pressure  
Sea Level Pressure 29.80 in    
Wind  
Wind Speed 10 mph ()    
Max Wind Speed 18 mph    
Max Gust Speed -    
Visibility 5.2 miles    
Events Snow    
Averages and records for this station are not official NWS values.
T = Trace of Precipitation, MM = Missing Value Source: Averaged Metar Reports

Daily Weather History Graph

Daily Weather History Graph

Search for Another Location

Airport or City:

Trip Planner

Search our weather history database for the weather conditions in past years. The results will help you decide how hot, cold, wet, or windy it might be!

Date:

Astronomy

Dec. 05, 2012 Rise Set
Actual Time 6:41 AM EET 4:16 PM EET
Civil Twilight 6:11 AM EET 4:45 PM EET
Nautical Twilight 5:38 AM EET 5:18 PM EET
Astronomical Twilight 5:06 AM EET 5:51 PM EET
Moon 10:41 PM EET (12/5) 10:57 AM EET (12/5)
Length of Visible Light 10h 34m
Length of Day
9h 34m
Waning Gibbous, 63% of the Moon is Illuminated
Dec 5
Waning Gibbous
Dec 6
Last Quarter
Dec 13
New
Dec 20
First Quarter
Dec 28
Full

Hourly Weather History & Observations

Time (EET) Temp. Windchill Dew Point Humidity Pressure Visibility Wind Dir Wind Speed Gust Speed Precip Events Conditions
12:20 AM 33.8 °F 22.8 °F 30.2 °F 87% 29.68 in 3.7 mi WSW 18.4 mph - N/A Snow Light Snow
12:50 AM 32.0 °F 20.8 °F 30.2 °F 93% 29.71 in 3.7 mi WSW 17.3 mph - N/A Snow Light Snow
1:20 AM 32.0 °F 20.8 °F 30.2 °F 93% 29.71 in 5.6 mi WSW 17.3 mph - N/A Snow Light Snow
1:50 AM 32.0 °F 21.2 °F 30.2 °F 93% 29.71 in 6.2 mi WSW 16.1 mph - N/A Snow Light Snow
2:00 AM 33 °F - 30 °F 86%  in 6 mi WSW 16.1 mph - - Snow Light Snow
2:20 AM 32.0 °F 20.8 °F 30.2 °F 93% 29.71 in 1.7 mi WSW 17.3 mph - N/A Snow Snow
2:50 AM 32.0 °F 21.2 °F 30.2 °F 93% 29.71 in 1.2 mi WSW 16.1 mph - N/A Snow Snow
3:20 AM 32.0 °F 21.2 °F 30.2 °F 93% 29.74 in 1.7 mi WSW 16.1 mph - N/A Snow Snow
3:50 AM 32.0 °F 21.6 °F 30.2 °F 93% 29.74 in 1.4 mi WSW 15.0 mph - N/A Snow Snow
4:20 AM 32.0 °F 23.0 °F 30.2 °F 93% 29.74 in - WSW 11.5 mph - N/A Snow Light Snow
4:50 AM 32.0 °F 23.6 °F 30.2 °F 93% 29.77 in 2.5 mi SW 10.4 mph - N/A Snow Light Snow
5:20 AM 32.0 °F 24.2 °F 30.2 °F 93% 29.77 in 2.5 mi WSW 9.2 mph - N/A Snow Light Snow
5:50 AM 32.0 °F 23.6 °F 30.2 °F 93% 29.80 in 3.7 mi WSW 10.4 mph - N/A Snow Light Snow
6:20 AM 32.0 °F 23.6 °F 30.2 °F 93% 29.80 in - WSW 10.4 mph - N/A Snow Light Snow
6:50 AM 30.2 °F 21.3 °F 30.2 °F 100% 29.80 in 3.7 mi WSW 10.4 mph - N/A Snow Light Snow
7:20 AM 30.2 °F 24.3 °F 30.2 °F 100% 29.80 in 4.3 mi WSW 5.8 mph - N/A Snow Light Snow
7:50 AM 30.2 °F - 30.2 °F 100% 29.83 in 4.3 mi Calm Calm - N/A Snow Light Snow
8:00 AM 31 °F - 30 °F 94%  in 4 mi Calm Calm - - Snow Light Snow
8:20 AM 32.0 °F 28.7 °F 30.2 °F 93% 29.83 in 6.2 mi WSW 3.5 mph - N/A   Mostly Cloudy
8:50 AM 32.0 °F 25.6 °F 30.2 °F 93% 29.83 in 6.2 mi West 6.9 mph - N/A   Mostly Cloudy
9:20 AM 32.0 °F 24.2 °F 30.2 °F 93% 29.83 in 6.2 mi West 9.2 mph - N/A   Mostly Cloudy
9:50 AM 33.8 °F 25.8 °F 30.2 °F 87% 29.83 in 6.2 mi West 10.4 mph - N/A   Mostly Cloudy
10:20 AM 33.8 °F 25.8 °F 30.2 °F 87% 29.83 in 6.2 mi WSW 10.4 mph - N/A   Mostly Cloudy
10:50 AM 35.6 °F 28.6 °F 30.2 °F 81% 29.83 in 6.2 mi West 9.2 mph - N/A   Mostly Cloudy
11:20 AM 35.6 °F 29.9 °F 30.2 °F 81% 29.83 in 6.2 mi West 6.9 mph - N/A   Scattered Clouds
11:50 AM 37.4 °F 33.8 °F 28.4 °F 70% 29.83 in 6.2 mi WSW 4.6 mph - N/A   Scattered Clouds
12:20 PM 37.4 °F 33.8 °F 30.2 °F 75% 29.83 in 6.2 mi NW 4.6 mph - N/A   Scattered Clouds
12:50 PM 39.2 °F 37.0 °F 30.2 °F 70% 29.83 in 6.2 mi WNW 3.5 mph - N/A   Scattered Clouds
1:20 PM 39.2 °F - 28.4 °F 65% 29.83 in 6.2 mi Variable 1.2 mph - N/A   Scattered Clouds
1:50 PM 39.2 °F - 28.4 °F 65% 29.83 in 6.2 mi Calm Calm - N/A   Scattered Clouds
2:00 PM 38 °F - 29 °F 58%  in 12 mi Calm Calm - -   Partly Cloudy
2:20 PM 39.2 °F 37.0 °F 28.4 °F 65% 29.83 in 6.2 mi East 3.5 mph - N/A   Scattered Clouds
2:50 PM 39.2 °F 37.0 °F 28.4 °F 65% 29.83 in 6.2 mi NE 3.5 mph - N/A   Scattered Clouds
4:50 PM 33.8 °F 28.6 °F 26.6 °F 75% 29.83 in - NE 5.8 mph - N/A   Clear
5:20 PM 33.8 °F 27.7 °F 26.6 °F 75% 29.83 in - East 6.9 mph - N/A   Clear
5:50 PM 32.0 °F 27.5 °F 26.6 °F 80% 29.83 in - ENE 4.6 mph - N/A   Clear
6:20 PM 33.8 °F - 26.6 °F 75% 29.83 in - Variable 2.3 mph - N/A   Clear
6:50 PM 32.0 °F 26.4 °F 28.4 °F 87% 29.83 in - NNE 5.8 mph - N/A   Clear
7:20 PM 32.0 °F 27.5 °F 26.6 °F 80% 29.83 in - ENE 4.6 mph - N/A   Clear
7:50 PM 30.2 °F 22.6 °F 26.6 °F 86% 29.83 in - NE 8.1 mph - N/A   Clear
8:00 PM 30 °F - 26 °F 80%  in 12 mi NE 8.1 mph - -  
8:20 PM 28.4 °F 21.2 °F 26.6 °F 93% 29.83 in - ENE 6.9 mph - N/A   Clear
8:50 PM 30.2 °F 21.9 °F 24.8 °F 80% 29.83 in - ENE 9.2 mph - N/A   Clear
9:20 PM 30.2 °F 24.3 °F 24.8 °F 80% 29.83 in - NE 5.8 mph - N/A   Clear
9:50 PM 30.2 °F 23.4 °F 26.6 °F 86% 29.83 in - North 6.9 mph - N/A   Clear
10:20 PM 30.2 °F 22.6 °F 26.6 °F 86% 29.80 in - NE 8.1 mph - N/A   Clear
10:50 PM 30.2 °F 25.4 °F 24.8 °F 80% 29.80 in - East 4.6 mph - N/A   Clear
11:20 PM 30.2 °F 26.7 °F 26.6 °F 86% 29.80 in - ESE 3.5 mph - N/A   Clear
11:50 PM 28.4 °F - 24.8 °F 86% 29.80 in 3.7 mi Calm Calm - N/A   Unknown